Group_Ship,Cruise ID,JD_GMT,DATE_UTC,TIME_UTC,LAT,LONG,xCO2_EQU,xCO2_ATM,xCO2_ATM_interp,PRES_EQU,PRES_ATM,TEMP_EQU,SST,SAL,fCO2_SW,fCO2_ATM_interp,dfCO2,WOCE_QC_FLAG,QC_SUBFLAG
,,,mmddyyyy,hh:mm:ss,dec_deg,dec_deg,ppm,ppm,ppm,hPa,@SSP_hPa,deg_C,deg_C,,@SST_uatm,uatm,uatm,,
SOCCO_SA_Agulhas,Gough 2008,248.60953,9/4/2008,14:37:43,-33.8843,18.0198,-999,384.637,-999,1011.11,1011.35,-999,15.5123,35.45999739,-999,-999,-999,9,
SOCCO_SA_Agulhas,Gough 2008,248.61047,9/4/2008,14:39:05,-33.8848,18.0154,-999,384.698,-999,1011.23,1011.38,-999,15.5204,35.46001255,-999,-999,-999,9,
SOCCO_SA_Agulhas,Gough 2008,248.61144,9/4/2008,14:40:28,-33.885,18.0108,-999,384.409,-999,1011.21,1011.38,-999,15.533,35.45397531,-999,-999,-999,9,
SOCCO_SA_Agulhas,Gough 2008,248.6124,9/4/2008,14:41:51,-33.8854,18.0062,-999,385.32,-999,1011.32,1011.5,-999,15.4789,35.45046459,-999,-999,-999,9,
SOCCO_SA_Agulhas,Gough 2008,249.32654,9/5/2008,7:50:13,-34.2225,14.8689,-999,384.803,-999,1023.36,1024.56,-999,15.1238,35.54377807,-999,-999,-999,9,
SOCCO_SA_Agulhas,Gough 2008,249.32958,9/5/2008,7:54:36,-34.2237,14.8544,-999,385.074,-999,1023.56,1024.19,-999,15.16,35.54288726,-999,-999,-999,9,
SOCCO_SA_Agulhas,Gough 2008,249.33054,9/5/2008,7:55:59,-34.2241,14.8498,-999,385.405,-999,1023.44,1024.35,-999,15.1628,35.54287986,-999,-999,-999,9,
SOCCO_SA_Agulhas,Gough 2008,249.33152,9/5/2008,7:57:23,-34.2243,14.8453,-999,385.515,-999,1023.3,1024.52,-999,15.1729,35.54020599,-999,-999,-999,9,
SOCCO_SA_Agulhas,Gough 2008,249.33248,9/5/2008,7:58:46,-34.2247,14.841,-999,385.205,-999,1023.09,1024.44,-999,15.1772,35.54020025,-999,-999,-999,9,
SOCCO_SA_Agulhas,Gough 2008,250.38579,9/6/2008,9:15:32,-34.7169,10.18,-999,383.654,-999,1011.67,1011.92,-999,15.35,35.59511808,-999,-999,-999,9,
SOCCO_SA_Agulhas,Gough 2008,250.38883,9/6/2008,9:19:55,-34.7189,10.1637,-999,383.624,-999,1011.52,1012.08,-999,15.35,35.59511394,-999,-999,-999,9,
SOCCO_SA_Agulhas,Gough 2008,250.38979,9/6/2008,9:21:18,-34.7195,10.1586,-999,383.714,-999,1011.43,1012.16,-999,15.35,35.59687558,-999,-999,-999,9,
SOCCO_SA_Agulhas,Gough 2008,250.39076,9/6/2008,9:22:42,-34.7202,10.1536,-999,383.655,-999,1011.5,1011.81,-999,15.35,35.59508528,-999,-999,-999,9,
SOCCO_SA_Agulhas,Gough 2008,250.39172,9/6/2008,9:24:05,-34.7208,10.1485,-999,383.725,-999,1011.33,1011.64,-999,15.3528,35.59598238,-999,-999,-999,9,
SOCCO_SA_Agulhas,Gough 2008,251.34051,9/7/2008,8:10:20,-35.1047,6.4002,-999,384.252,-999,1000.78,1000.77,-999,15.6128,35.66554402,-999,-999,-999,9,
SOCCO_SA_Agulhas,Gough 2008,251.34355,9/7/2008,8:14:43,-35.1061,6.3885,-999,384.619,-999,1000.67,1000.31,-999,15.6663,35.6788425,-999,-999,-999,9,
SOCCO_SA_Agulhas,Gough 2008,251.34451,9/7/2008,8:16:06,-35.1066,6.3851,-999,385.065,-999,1001.09,1000.39,-999,15.6634,35.62279986,-999,-999,-999,9,
SOCCO_SA_Agulhas,Gough 2008,251.34547,9/7/2008,8:17:29,-35.1069,6.3818,-999,384.269,-999,1001.27,1000.44,-999,15.6283,35.6787843,-999,-999,-999,9,
SOCCO_SA_Agulhas,Gough 2008,251.34644,9/7/2008,8:18:52,-35.1075,6.3784,-999,384.565,-999,1001.14,1000.33,-999,15.6443,35.67965715,-999,-999,-999,9,
SOCCO_SA_Agulhas,Gough 2008,251.48965,9/7/2008,11:45:06,-35.1434,5.8482,-999,384.179,-999,1000.53,1000.74,-999,15.8,35.70490059,-999,-999,-999,9,
SOCCO_SA_Agulhas,Gough 2008,251.4927,9/7/2008,11:49:29,-35.1431,5.8446,-999,383.687,-999,1000.22,1000.66,-999,15.7923,35.70040866,-999,-999,-999,9,
SOCCO_SA_Agulhas,Gough 2008,251.49366,9/7/2008,11:50:52,-35.143,5.8435,-999,384.188,-999,1000.5,1000.6,-999,15.7928,35.70303448,-999,-999,-999,9,
SOCCO_SA_Agulhas,Gough 2008,251.49462,9/7/2008,11:52:15,-35.143,5.8424,-999,384.221,-999,1000.44,1000.39,-999,15.8028,35.70395792,-999,-999,-999,9,
SOCCO_SA_Agulhas,Gough 2008,251.49558,9/7/2008,11:53:38,-35.143,5.8413,-999,384.633,-999,1000.69,1000.29,-999,15.8072,35.70132276,-999,-999,-999,9,
SOCCO_SA_Agulhas,Gough 2008,252.33911,9/8/2008,8:08:19,-35.4731,2.9297,-999,384.708,-999,1006.25,1007.13,-999,13.7511,35.42134955,-999,-999,-999,9,
SOCCO_SA_Agulhas,Gough 2008,252.34215,9/8/2008,8:12:42,-35.474,2.9166,-999,386.727,-999,1006.73,1006.81,-999,13.8109,35.43183404,-999,-999,-999,9,
SOCCO_SA_Agulhas,Gough 2008,252.34311,9/8/2008,8:14:05,-35.4745,2.9123,-999,385.304,-999,1006.28,1006.94,-999,13.8338,35.45480655,-999,-999,-999,9,
SOCCO_SA_Agulhas,Gough 2008,252.34407,9/8/2008,8:15:28,-35.4749,2.9079,-999,384.694,-999,1006.02,1007.17,-999,13.8949,35.46448606,-999,-999,-999,9,
SOCCO_SA_Agulhas,Gough 2008,252.34503,9/8/2008,8:16:51,-35.4752,2.9036,-999,385.297,-999,1005.99,1007.28,-999,13.9794,35.46850059,-999,-999,-999,9,
SOCCO_SA_Agulhas,Gough 2008,252.346,9/8/2008,8:18:14,-35.4756,2.8995,365.595,-999,385.31,1005.61,1006.98,15.1,14.0783,35.49969487,340.46,376.02,-35.56,2,
SOCCO_SA_Agulhas,Gough 2008,252.34934,9/8/2008,8:23:03,-35.4768,2.8851,366.669,-999,385.28,1005.79,1007.51,15.13,14.2238,35.50341477,343.18,376.13,-32.95,2,
SOCCO_SA_Agulhas,Gough 2008,252.35029,9/8/2008,8:24:25,-35.4772,2.8809,361.858,-999,385.27,1005.7,1007.02,15.16,14.2381,35.50070463,338.41,375.93,-37.52,2,
SOCCO_SA_Agulhas,Gough 2008,252.35221,9/8/2008,8:27:11,-35.4782,2.8725,361.661,-999,385.26,1005.29,1007.37,15.17,14.27,35.50260877,338.4,376.04,-37.64,2,
SOCCO_SA_Agulhas,Gough 2008,252.35535,9/8/2008,8:31:42,-35.4796,2.8589,364.973,-999,385.23,1006.39,1007.05,15.16,14.2815,35.48965281,342.19,375.88,-33.69,2,
SOCCO_SA_Agulhas,Gough 2008,252.35631,9/8/2008,8:33:05,-35.4799,2.8547,363.04,-999,385.22,1006.1,1007.36,15.13,14.2517,35.48309977,340.29,376,-35.71,2,
SOCCO_SA_Agulhas,Gough 2008,252.35823,9/8/2008,8:35:51,-35.4806,2.8469,362.773,-999,385.2,1005.83,1007.21,15.09,14.2043,35.4681135,339.86,375.95,-36.09,2,
SOCCO_SA_Agulhas,Gough 2008,252.36014,9/8/2008,8:38:36,-35.4815,2.8388,361.714,-999,385.18,1005.2,1007.64,14.97,14.1139,35.44340021,339.12,376.12,-37.01,3,low EQ gas flow
SOCCO_SA_Agulhas,Gough 2008,252.3611,9/8/2008,8:39:59,-35.4821,2.8346,361.937,-999,385.17,1005.71,1007.43,14.91,14.0534,35.42355513,339.51,376.06,-36.54,2,
SOCCO_SA_Agulhas,Gough 2008,252.37072,9/8/2008,8:53:50,-35.4862,2.7926,366.416,-999,385.08,1006.75,1007.27,14.69,13.7972,35.40643477,343.63,376,-32.38,2,
SOCCO_SA_Agulhas,Gough 2008,252.37168,9/8/2008,8:55:13,-35.4866,2.7882,366.608,-999,385.07,1006.63,1007.61,14.69,13.79,35.40547327,343.66,376.12,-32.46,2,
SOCCO_SA_Agulhas,Gough 2008,252.37263,9/8/2008,8:56:35,-35.487,2.7841,365.708,-999,385.06,1006.77,1007.76,14.69,13.79,35.40640596,342.86,376.17,-33.31,2,
SOCCO_SA_Agulhas,Gough 2008,252.37359,9/8/2008,8:57:58,-35.4873,2.7798,366.822,-999,385.05,1006.21,1007.41,14.68,13.7872,35.40455809,343.82,376.03,-32.21,2,
SOCCO_SA_Agulhas,Gough 2008,252.37455,9/8/2008,8:59:21,-35.4878,2.7756,365.301,-999,385.05,1003.42,1007.45,14.68,13.78,35.40636827,341.33,376.04,-34.71,2,
SOCCO_SA_Agulhas,Gough 2008,252.37551,9/8/2008,9:00:44,-35.4883,2.7716,366.826,-999,385.04,1006.6,1007.58,14.67,13.7772,35.40080608,343.97,376.08,-32.12,2,
SOCCO_SA_Agulhas,Gough 2008,252.37647,9/8/2008,9:02:07,-35.4886,2.7677,365.665,-999,385.03,1006.1,1007.34,14.69,13.7755,35.40357762,342.38,375.98,-33.6,2,
SOCCO_SA_Agulhas,Gough 2008,252.37743,9/8/2008,9:03:30,-35.4889,2.7637,366.178,-999,385.02,1006.53,1007.98,14.67,13.7845,35.4034928,343.44,376.21,-32.77,2,
SOCCO_SA_Agulhas,Gough 2008,252.37839,9/8/2008,9:04:53,-35.4894,2.7594,366.34,-999,385.01,1006.82,1007.71,14.67,13.77,35.39481998,343.48,376.11,-32.63,2,
SOCCO_SA_Agulhas,Gough 2008,252.38705,9/8/2008,9:17:21,-35.4923,2.7184,366.246,-999,384.93,1006.29,1007.74,14.66,13.7527,35.40343529,343.11,376.05,-32.94,2,
SOCCO_SA_Agulhas,Gough 2008,252.38801,9/8/2008,9:18:44,-35.4925,2.7141,366.699,-999,384.92,1006.77,1007.6,14.64,13.7545,35.40045764,344.02,375.98,-31.96,2,
SOCCO_SA_Agulhas,Gough 2008,252.38897,9/8/2008,9:20:07,-35.493,2.7097,366.801,-999,384.91,1006.11,1007.64,14.62,13.7345,35.36094925,343.9,376,-32.1,2,
SOCCO_SA_Agulhas,Gough 2008,252.38993,9/8/2008,9:21:30,-35.493,2.7054,367.424,-999,384.9,1007.53,1007.92,14.57,13.7062,35.3864257,345.31,376.1,-30.8,2,
SOCCO_SA_Agulhas,Gough 2008,252.39089,9/8/2008,9:22:53,-35.4931,2.7011,363.077,-999,384.89,1007.13,1007.91,14.7,13.706,35.4541339,339.17,376.09,-36.92,2,
SOCCO_SA_Agulhas,Gough 2008,252.39185,9/8/2008,9:24:16,-35.4931,2.6966,363.459,-999,384.88,1006.92,1007.91,14.83,13.836,35.45416929,339.41,376.04,-36.63,2,
SOCCO_SA_Agulhas,Gough 2008,252.39281,9/8/2008,9:25:39,-35.4932,2.6923,361.417,-999,384.87,1007.3,1007.84,14.93,13.9577,35.48173766,337.9,375.96,-38.05,2,
SOCCO_SA_Agulhas,Gough 2008,252.40266,9/8/2008,9:39:50,-35.4951,2.649,360.131,-999,384.78,1006.96,1008.16,15.2,14.3,35.5036486,337.52,375.86,-38.34,2,
SOCCO_SA_Agulhas,Gough 2008,252.40362,9/8/2008,9:41:13,-35.4955,2.6447,360.143,-999,384.77,1007.47,1008.44,15.23,14.3083,35.51375252,337.39,375.95,-38.57,2,
SOCCO_SA_Agulhas,Gough 2008,252.40458,9/8/2008,9:42:36,-35.4958,2.6404,359.985,-999,384.76,1006.79,1007.92,15.24,14.3328,35.51842822,337.21,375.74,-38.53,2,
SOCCO_SA_Agulhas,Gough 2008,252.40554,9/8/2008,9:43:59,-35.4962,2.6359,360.468,-999,384.75,1007.6,1007.8,15.27,14.3483,35.51662351,337.72,375.68,-37.96,2,
SOCCO_SA_Agulhas,Gough 2008,252.4065,9/8/2008,9:45:22,-35.4966,2.6313,360.279,-999,384.74,1007.14,1007.77,15.28,14.3728,35.51939303,337.59,375.65,-38.06,2,
SOCCO_SA_Agulhas,Gough 2008,252.40748,9/8/2008,9:46:46,-35.497,2.6265,360.131,-999,384.73,1006.98,1008.07,15.29,14.3829,35.52488457,337.4,375.75,-38.35,2,
SOCCO_SA_Agulhas,Gough 2008,252.40844,9/8/2008,9:48:09,-35.4975,2.6219,359.982,-999,384.73,1007.1,1008.02,15.3,14.3928,35.52764619,337.29,375.72,-38.43,2,
SOCCO_SA_Agulhas,Gough 2008,252.4094,9/8/2008,9:49:32,-35.498,2.6173,360.154,-999,384.72,1006.72,1007.89,15.31,14.4028,35.53407443,337.32,375.66,-38.34,2,
SOCCO_SA_Agulhas,Gough 2008,252.41036,9/8/2008,9:50:55,-35.4984,2.6126,359.495,-999,384.71,1006.15,1008.26,15.33,14.4155,35.53226415,336.4,375.78,-39.38,2,
SOCCO_SA_Agulhas,Gough 2008,252.419,9/8/2008,10:03:22,-35.5028,2.5736,359.042,-999,384.63,1007.32,1008.29,15.37,14.4626,35.5341704,336.46,375.7,-39.24,2,
SOCCO_SA_Agulhas,Gough 2008,252.41998,9/8/2008,10:04:46,-35.5033,2.5695,359.264,-999,384.62,1007.46,1008.24,15.37,14.47,35.53782586,336.82,375.67,-38.85,2,
SOCCO_SA_Agulhas,Gough 2008,252.42095,9/8/2008,10:06:10,-35.5039,2.5653,358.464,-999,384.61,1007.35,1008.64,15.38,14.4728,35.53873846,335.93,375.81,-39.88,2,
SOCCO_SA_Agulhas,Gough 2008,252.4219,9/8/2008,10:07:32,-35.5045,2.561,358.767,-999,384.6,1007.05,1008.39,15.4,14.4854,35.54147779,336,375.7,-39.7,2,
SOCCO_SA_Agulhas,Gough 2008,252.42286,9/8/2008,10:08:55,-35.505,2.5567,359.029,-999,384.59,1007.61,1007.97,15.4,14.5,35.53784016,336.64,375.53,-38.89,2,
SOCCO_SA_Agulhas,Gough 2008,252.42382,9/8/2008,10:10:18,-35.5056,2.5528,359.331,-999,384.58,1007.91,1008.7,15.4,14.5,35.53966289,337.02,375.79,-38.77,2,
SOCCO_SA_Agulhas,Gough 2008,252.42478,9/8/2008,10:11:41,-35.5062,2.5487,358.782,-999,384.57,1007.69,1008.5,15.39,14.4972,35.54057522,336.54,375.71,-39.17,2,
SOCCO_SA_Agulhas,Gough 2008,252.42574,9/8/2008,10:13:04,-35.5068,2.5448,358.914,-999,384.56,1007.78,1008.6,15.39,14.49,35.53966561,336.59,375.74,-39.15,2,
SOCCO_SA_Agulhas,Gough 2008,252.4267,9/8/2008,10:14:27,-35.5073,2.5407,358.756,-999,384.55,1007.64,1008.17,15.39,14.49,35.5378516,336.4,375.57,-39.17,2,
SOCCO_SA_Agulhas,Gough 2008,252.43441,9/8/2008,10:25:33,-35.5123,2.506,358.981,-999,384.48,1006.82,1008.19,15.39,14.49,35.53329238,336.33,375.51,-39.18,2,
SOCCO_SA_Agulhas,Gough 2008,252.43537,9/8/2008,10:26:56,-35.5128,2.5013,359.564,-999,384.47,1007.31,1008.43,15.39,14.49,35.53786925,337.04,375.59,-38.55,2,
SOCCO_SA_Agulhas,Gough 2008,252.43657,9/8/2008,10:28:40,-35.5135,2.496,358.873,-999,384.46,1007.2,1008.21,15.4,14.4942,35.53878068,336.27,375.49,-39.22,2,
SOCCO_SA_Agulhas,Gough 2008,252.43755,9/8/2008,10:30:04,-35.514,2.4919,359.335,-999,384.45,1007.48,1008.41,15.4,14.5,35.54152209,336.88,375.56,-38.67,2,
SOCCO_SA_Agulhas,Gough 2008,252.43851,9/8/2008,10:31:27,-35.5147,2.4877,359.197,-999,384.44,1007.14,1008.7,15.42,14.5055,35.54516854,336.42,375.65,-39.23,2,
SOCCO_SA_Agulhas,Gough 2008,252.43947,9/8/2008,10:32:50,-35.5153,2.4835,359.379,-999,384.43,1008.33,1008.36,15.43,14.5228,35.54972469,337.1,375.51,-38.41,2,
SOCCO_SA_Agulhas,Gough 2008,252.44043,9/8/2008,10:34:13,-35.5158,2.4792,359.101,-999,384.42,1006.97,1008.57,15.44,14.5328,35.55064719,336.37,375.58,-39.21,2,
SOCCO_SA_Agulhas,Gough 2008,252.44139,9/8/2008,10:35:36,-35.5164,2.475,358.872,-999,384.41,1007.33,1008.55,15.46,14.5455,35.55337695,336.17,375.56,-39.39,2,
SOCCO_SA_Agulhas,Gough 2008,252.44235,9/8/2008,10:36:59,-35.517,2.4705,358.304,-999,384.4,1006.55,1008.47,15.47,14.5628,35.55611231,335.47,375.51,-40.04,2,
SOCCO_SA_Agulhas,Gough 2008,252.44332,9/8/2008,10:38:23,-35.5176,2.4661,358.616,-999,384.4,1007.44,1008.5,15.48,14.5728,35.55884162,336.06,375.51,-39.45,2,
SOCCO_SA_Agulhas,Gough 2008,252.44428,9/8/2008,10:39:46,-35.5182,2.4616,357.917,-999,384.39,1006.64,1008.54,15.51,14.5883,35.56248263,334.92,375.51,-40.59,2,
SOCCO_SA_Agulhas,Gough 2008,252.46509,9/8/2008,11:09:44,-35.5307,2.3704,-999,384.207,-999,1007.92,1008.43,-999,14.6961,35.58505515,-999,-999,-999,9,
SOCCO_SA_Agulhas,Gough 2008,252.46814,9/8/2008,11:14:07,-35.5319,2.3572,-999,383.746,-999,1007.99,1008.1,-999,14.7477,35.58143734,-999,-999,-999,9,
SOCCO_SA_Agulhas,Gough 2008,252.4691,9/8/2008,11:15:30,-35.5324,2.3527,-999,383.993,-999,1008.02,1008.44,-999,14.75,35.57962383,-999,-999,-999,9,
SOCCO_SA_Agulhas,Gough 2008,252.47006,9/8/2008,11:16:53,-35.5329,2.3484,-999,384.209,-999,1008.06,1008.44,-999,14.7472,35.57330839,-999,-999,-999,9,
SOCCO_SA_Agulhas,Gough 2008,252.47102,9/8/2008,11:18:16,-35.5332,2.3442,-999,384.626,-999,1008.18,1008.39,-999,14.74,35.57422577,-999,-999,-999,9,
SOCCO_SA_Agulhas,Gough 2008,252.48519,9/8/2008,11:38:40,-35.54,2.2818,358.916,-999,384.3,1007.91,1008.31,15.53,14.63,35.55613415,336.59,375.32,-38.74,2,
SOCCO_SA_Agulhas,Gough 2008,252.48616,9/8/2008,11:40:04,-35.5405,2.2776,358.773,-999,384.31,1007.6,1008.97,15.51,14.6243,35.55158616,336.56,375.58,-39.02,2,
SOCCO_SA_Agulhas,Gough 2008,252.48712,9/8/2008,11:41:27,-35.5411,2.2734,359.84,-999,384.32,1008.28,1008.74,15.47,14.5989,35.54339558,338.01,375.51,-37.5,2,
SOCCO_SA_Agulhas,Gough 2008,252.48808,9/8/2008,11:42:50,-35.5417,2.2694,360.057,-999,384.33,1008.6,1008.78,15.45,14.5645,35.5279074,338.13,375.55,-37.42,2,
SOCCO_SA_Agulhas,Gough 2008,252.48904,9/8/2008,11:44:13,-35.5422,2.2654,360.324,-999,384.33,1007.43,1008.73,15.42,14.5417,35.52782384,338.09,375.55,-37.45,2,
SOCCO_SA_Agulhas,Gough 2008,252.48999,9/8/2008,11:45:35,-35.5427,2.2615,360.371,-999,384.34,1008.39,1008.76,15.37,14.5065,35.51953234,338.69,375.58,-36.89,2,
SOCCO_SA_Agulhas,Gough 2008,252.49096,9/8/2008,11:46:59,-35.5432,2.2573,359.937,-999,384.35,1007.58,1008.84,15.34,14.4615,35.51763026,337.81,375.64,-37.83,2,
SOCCO_SA_Agulhas,Gough 2008,252.49192,9/8/2008,11:48:22,-35.5438,2.2531,359.954,-999,384.36,1008.23,1008.75,15.29,14.4262,35.50566183,338.27,375.62,-37.35,2,
SOCCO_SA_Agulhas,Gough 2008,252.49288,9/8/2008,11:49:45,-35.5443,2.249,359.45,-999,384.37,1007.18,1008.55,15.24,14.3762,35.50086493,337.46,375.58,-38.11,2,
SOCCO_SA_Agulhas,Gough 2008,252.50249,9/8/2008,12:03:35,-35.5481,2.2058,362.68,-999,384.45,1007.92,1008.75,15.04,14.14,35.47447432,340.3,375.82,-35.52,2,
SOCCO_SA_Agulhas,Gough 2008,252.50345,9/8/2008,12:04:58,-35.5484,2.2014,362.387,-999,384.46,1008.29,1008.71,15.04,14.14,35.47639725,340.15,375.81,-35.67,2,
SOCCO_SA_Agulhas,Gough 2008,252.50442,9/8/2008,12:06:22,-35.5488,2.1969,362.023,-999,384.47,1007.65,1008.66,15.06,14.1457,35.4791911,339.38,375.8,-36.43,2,
SOCCO_SA_Agulhas,Gough 2008,252.50538,9/8/2008,12:07:45,-35.5491,2.192,362.12,-999,384.48,1007.81,1008.86,15.04,14.1545,35.4772548,339.94,375.88,-35.94,2,
SOCCO_SA_Agulhas,Gough 2008,252.50634,9/8/2008,12:09:08,-35.5496,2.1873,362.687,-999,384.49,1007.78,1008.41,15.06,14.1455,35.47724959,340.04,375.72,-35.68,2,
SOCCO_SA_Agulhas,Gough 2008,252.5073,9/8/2008,12:10:31,-35.55,2.1827,362.283,-999,384.5,1007.37,1008.59,15.06,14.16,35.48288619,339.73,375.79,-36.07,2,
SOCCO_SA_Agulhas,Gough 2008,252.50826,9/8/2008,12:11:54,-35.5503,2.1781,362.73,-999,384.5,1007.08,1008.45,15.07,14.1628,35.49122356,339.94,375.75,-35.81,2,
SOCCO_SA_Agulhas,Gough 2008,252.50922,9/8/2008,12:13:17,-35.5507,2.1737,362.147,-999,384.51,1007.63,1008.81,15.11,14.1811,35.49417262,339.26,375.89,-36.63,2,
SOCCO_SA_Agulhas,Gough 2008,252.5102,9/8/2008,12:14:41,-35.5509,2.1691,361.613,-999,384.52,1007.58,1008.53,15.11,14.21,35.48476125,339.15,375.78,-36.62,2,
SOCCO_SA_Agulhas,Gough 2008,252.51789,9/8/2008,12:25:46,-35.5529,2.1339,358.775,-999,384.59,1007.81,1008.49,15.7,14.7566,35.60468017,335.74,375.62,-39.88,2,
SOCCO_SA_Agulhas,Gough 2008,252.51885,9/8/2008,12:27:09,-35.553,2.1297,358.541,-999,384.6,1007.72,1008.54,15.79,14.8249,35.61268618,335.15,375.62,-40.47,2,
SOCCO_SA_Agulhas,Gough 2008,252.51981,9/8/2008,12:28:32,-35.5532,2.1255,358.938,-999,384.6,1007.28,1008.34,15.85,14.9066,35.61970319,335.66,375.53,-39.86,2,
SOCCO_SA_Agulhas,Gough 2008,252.52102,9/8/2008,12:30:16,-35.5534,2.1204,358.814,-999,384.62,1007.99,1008.89,15.88,14.9628,35.62233998,336.15,375.72,-39.57,2,
SOCCO_SA_Agulhas,Gough 2008,252.52198,9/8/2008,12:31:39,-35.5537,2.116,359.341,-999,384.62,1007.4,1008.64,15.91,14.9883,35.62672919,336.36,375.63,-39.26,2,
SOCCO_SA_Agulhas,Gough 2008,252.52293,9/8/2008,12:33:01,-35.554,2.1114,359.248,-999,384.63,1007.89,1008.87,15.94,15.0181,35.63021772,336.43,375.71,-39.28,2,
SOCCO_SA_Agulhas,Gough 2008,252.52389,9/8/2008,12:34:24,-35.5542,2.1069,360.045,-999,384.64,1007.28,1008.79,15.96,15.0455,35.62656198,337.07,375.68,-38.61,2,
SOCCO_SA_Agulhas,Gough 2008,252.52485,9/8/2008,12:35:47,-35.5545,2.1023,360.272,-999,384.65,1007.72,1008.85,15.98,15.0655,35.63188235,337.42,375.7,-38.28,2,
SOCCO_SA_Agulhas,Gough 2008,252.52582,9/8/2008,12:37:11,-35.5547,2.0979,360.058,-999,384.66,1007.21,1009.14,15.98,15.08,35.63097105,337.26,375.81,-38.56,2,
SOCCO_SA_Agulhas,Gough 2008,252.52678,9/8/2008,12:38:34,-35.5551,2.0936,360.686,-999,384.67,1007.49,1008.69,15.99,15.0828,35.6344744,337.83,375.65,-37.82,2,
SOCCO_SA_Agulhas,Gough 2008,252.52775,9/8/2008,12:39:58,-35.5554,2.0892,359.732,-999,384.67,1007.72,1008.87,16.01,15.0957,35.63624636,336.91,375.72,-38.81,2,
SOCCO_SA_Agulhas,Gough 2008,252.52872,9/8/2008,12:41:21,-35.5557,2.0849,360.289,-999,384.68,1007.27,1008.6,16,15.1072,35.63713765,337.59,375.62,-38.03,2,
SOCCO_SA_Agulhas,Gough 2008,252.52968,9/8/2008,12:42:44,-35.556,2.0807,359.525,-999,384.69,1008.14,1008.81,16.01,15.1028,35.63532717,336.96,375.71,-38.75,2,
SOCCO_SA_Agulhas,Gough 2008,252.53062,9/8/2008,12:44:06,-35.5563,2.0765,359.892,-999,384.7,1007.46,1009.01,16,15.1074,35.63712005,337.28,375.79,-38.51,2,
SOCCO_SA_Agulhas,Gough 2008,252.5316,9/8/2008,12:45:30,-35.5567,2.0721,358.938,-999,384.71,1007.34,1008.44,16.03,15.1087,35.6371021,335.93,375.59,-39.66,2,
SOCCO_SA_Agulhas,Gough 2008,252.53256,9/8/2008,12:46:53,-35.5571,2.0678,358.895,-999,384.72,1007.75,1008.62,16.02,15.1272,35.6361928,336.44,375.65,-39.22,2,
SOCCO_SA_Agulhas,Gough 2008,252.53352,9/8/2008,12:48:16,-35.5575,2.0637,359.082,-999,384.73,1007.12,1008.86,16.02,15.12,35.63798064,336.3,375.76,-39.46,2,
SOCCO_SA_Agulhas,Gough 2008,252.5412,9/8/2008,12:59:20,-35.5613,2.0287,359.726,-999,384.79,1007.59,1008.83,16.04,15.14,35.63344722,337.05,375.8,-38.75,2,
SOCCO_SA_Agulhas,Gough 2008,252.54315,9/8/2008,13:02:08,-35.5626,2.0207,360.249,-999,384.81,1007.08,1008.55,16.04,15.14,35.63702874,337.37,375.71,-38.35,2,
SOCCO_SA_Agulhas,Gough 2008,252.54411,9/8/2008,13:03:31,-35.5633,2.0166,360.086,-999,384.82,1007.64,1008.52,16.05,15.1428,35.63343378,337.3,375.71,-38.41,2,
SOCCO_SA_Agulhas,Gough 2008,252.54507,9/8/2008,13:04:54,-35.5638,2.0122,360.163,-999,384.83,1006.81,1008.85,16.05,15.15,35.63610896,337.19,375.84,-38.65,2,
SOCCO_SA_Agulhas,Gough 2008,252.54603,9/8/2008,13:06:17,-35.5645,2.0079,360.66,-999,384.83,1007.98,1008.44,16.03,15.1445,35.63433411,338.27,375.69,-37.43,2,
SOCCO_SA_Agulhas,Gough 2008,252.547,9/8/2008,13:07:41,-35.5652,2.0037,360.296,-999,384.84,1007.13,1009.06,16.04,15.1328,35.63434799,337.33,375.94,-38.62,2,
SOCCO_SA_Agulhas,Gough 2008,252.5566,9/8/2008,13:21:30,-35.5717,1.9618,359.853,-999,384.93,1008.08,1008.53,16.01,15.1389,35.63787779,337.76,375.82,-38.06,2,
SOCCO_SA_Agulhas,Gough 2008,252.55852,9/8/2008,13:24:16,-35.5728,1.9532,359.517,-999,384.94,1007.32,1008.43,16.06,15.1528,35.63787394,336.65,375.79,-39.14,2,
SOCCO_SA_Agulhas,Gough 2008,252.55948,9/8/2008,13:25:39,-35.5735,1.9489,359.974,-999,384.95,1007.62,1008.62,16.04,15.1545,35.63878332,337.5,375.87,-38.37,2,
SOCCO_SA_Agulhas,Gough 2008,252.56044,9/8/2008,13:27:02,-35.5741,1.9447,359.89,-999,384.96,1008.06,1008.54,16.05,15.1428,35.63788779,337.26,375.86,-38.6,2,
SOCCO_SA_Agulhas,Gough 2008,252.5614,9/8/2008,13:28:25,-35.5747,1.9406,360.047,-999,384.97,1007.84,1008.19,16.05,15.15,35.63787731,337.43,375.73,-38.3,2,
SOCCO_SA_Agulhas,Gough 2008,252.5626,9/8/2008,13:30:09,-35.5754,1.9354,359.863,-999,384.98,1007.2,1008.36,16.06,15.1542,35.63878284,336.96,375.8,-38.85,2,
SOCCO_SA_Agulhas,Gough 2008,252.56356,9/8/2008,13:31:32,-35.5759,1.9316,359.77,-999,384.99,1007.55,1008.8,16.05,15.1572,35.63608544,337.18,375.98,-38.8,2,
SOCCO_SA_Agulhas,Gough 2008,252.56453,9/8/2008,13:32:55,-35.5765,1.9276,359.816,-999,385,1007.3,1008.59,16.06,15.1528,35.63701493,336.93,375.91,-38.98,2,
SOCCO_SA_Agulhas,Gough 2008,252.5911,9/8/2008,14:11:11,-35.5878,1.813,-999,386.181,-999,1008.48,1008.73,-999,15.13,35.63436615,-999,-999,-999,9,
SOCCO_SA_Agulhas,Gough 2008,252.59414,9/8/2008,14:15:34,-35.5891,1.7995,-999,384.574,-999,1008.53,1009.18,-999,15.1377,35.63436655,-999,-999,-999,9,
SOCCO_SA_Agulhas,Gough 2008,252.5951,9/8/2008,14:16:57,-35.5895,1.7955,-999,385.754,-999,1008.67,1008.52,-999,15.1345,35.63435733,-999,-999,-999,9,
SOCCO_SA_Agulhas,Gough 2008,252.59606,9/8/2008,14:18:20,-35.5899,1.7915,-999,385.235,-999,1008.24,1008.7,-999,15.1255,35.63433892,-999,-999,-999,9,
SOCCO_SA_Agulhas,Gough 2008,252.59701,9/8/2008,14:19:42,-35.5904,1.7873,-999,384.566,-999,1008.39,1008.83,-999,15.14,35.63165423,-999,-999,-999,9,
SOCCO_SA_Agulhas,Gough 2008,252.61984,9/8/2008,14:52:34,-35.6004,1.6918,358.044,-999,385.02,1007.84,1009.61,16.02,15.1272,35.63171748,335.67,376.33,-40.66,2,
SOCCO_SA_Agulhas,Gough 2008,252.6208,9/8/2008,14:53:57,-35.6009,1.6879,358.034,-999,385.02,1009.05,1009.41,16.02,15.12,35.63173469,335.97,376.25,-40.28,2,
SOCCO_SA_Agulhas,Gough 2008,252.62176,9/8/2008,14:55:20,-35.6013,1.6838,358.455,-999,385.01,1008.1,1008.89,16.02,15.12,35.63532149,336.04,376.04,-40,2,
SOCCO_SA_Agulhas,Gough 2008,252.62273,9/8/2008,14:56:44,-35.602,1.6796,358.425,-999,385,1008.26,1009.32,16.01,15.1172,35.63261441,336.17,376.2,-40.02,2,
SOCCO_SA_Agulhas,Gough 2008,252.62368,9/8/2008,14:58:06,-35.6026,1.6755,358.395,-999,384.99,1008.94,1009.6,16.03,15.1154,35.63259605,336.06,376.29,-40.24,2,
SOCCO_SA_Agulhas,Gough 2008,252.62465,9/8/2008,14:59:30,-35.6031,1.6714,358.256,-999,384.98,1008.19,1009.6,16.03,15.13,35.63616425,335.88,376.28,-40.4,2,
SOCCO_SA_Agulhas,Gough 2008,252.6256,9/8/2008,15:00:52,-35.6037,1.6672,358.157,-999,384.97,1008.42,1009.62,16.02,15.1273,35.63437213,335.97,376.28,-40.31,2,
SOCCO_SA_Agulhas,Gough 2008,252.62656,9/8/2008,15:02:15,-35.6043,1.6631,357.887,-999,384.96,1008.46,1009.76,16.02,15.12,35.6352726,335.63,376.32,-40.7,2,
SOCCO_SA_Agulhas,Gough 2008,252.62752,9/8/2008,15:03:38,-35.6047,1.6594,357.798,-999,384.95,1008.48,1009.22,16.03,15.1228,35.63885382,335.45,376.11,-40.67,2,
SOCCO_SA_Agulhas,Gough 2008,252.62848,9/8/2008,15:05:01,-35.6052,1.6556,357.818,-999,384.94,1008.85,1009.46,16.04,15.1328,35.63792947,335.59,376.19,-40.6,2,
SOCCO_SA_Agulhas,Gough 2008,252.62944,9/8/2008,15:06:24,-35.6058,1.6518,358.028,-999,384.93,1008.12,1009.67,16.04,15.14,35.63795286,335.64,376.26,-40.62,2,